STARLINK-32390, 61630

Orbit data source: Space-Track

STARLINK-32390, 61630 is a payload satellite owned by SpaceX/Seattle (US) in LEO that was launched on Wed, 23 Oct 2024 UTC via an FALCON 9 launch vehicle from the Air Force Eastern Test Range (AFETR). Payload-class satellites include a variety of spacecraft equipped with specific instruments for various scientific and technological missions. These include communications satellites like Starlink; space stations such as the ISS; scientific satellites like the Hubble; Earth observation satellites from companies like Planet Labs, Umbra, and HawkEye 360; GPS; miniature CubeSats for education and research; and military/defense satellites.

Loading next visibility...
Identifier
61630, 2024-191K
Orbit
LEO
Country
Flag of USUS
Related business
Manufacturer
SpaceX/Seattle
Mission
Operational Commercial Communications
Bus & Motor
STARLINK V2M, Unknown motor
Mass
730 kg wet, ~700 kg dry
Launch date (UTC)
2024-10-23 (2 years ago)
Launch vehicle
FALCON 9
Launch site
Air Force Eastern Test Range (AFETR)
Object type
Payload
Rocket body
Debris
Shape & HBR
Box + 2 Pan, 17.7 m
Radar Cross Section
33.884 m², Large (>1 m²)

Expand to show TLE details & history
Last TLE update: 17 hours ago

TLE from 17 hours ago
0 STARLINK-32390
1 61630U 24191K   26255.49691883 -.00000198  00000-0  23125-5 0  9998
2 61630  43.0011 179.7311 0000487 278.9842  81.0955 15.27574410106107
Epoch: 2026-09-12T11:55Z
TLE epoch observation values (Epoch: 2026-09-12T11:55:33.786Z)
Latitude
-0°
Longitude
9.33524°
Altitude
482.79 km
Speed
7.626 km/s
True Right ascension
11h 58m 55s
True Declination
0° 00' 00"
Sunlit
Object was in daylight at epoch
Visualization orbit readout
Latitude
Unknown
Longitude
Unknown
Altitude
Unknown
Speed
Unknown
Apparent Right ascension
Unknown
Apparent Declination
Unknown
Sunlit
N/A
Visualization observer readout
Local Sidereal Time
21:37:23
Azimuth
Unknown
Elevation
Unknown
Doppler factor
Unknown
Orbital elements
Apogee altitude
485.345 km
Perigee altitude
484.677 km
Semi-major axis
6,863.148 km
Eccentricity
0.00005
Inclination
43.0011°
RAAN
179.7311°
Arg. of periapsis
278.9842°
True anomaly
81.10101°
Mean anomaly
81.0955°
Eccentric anomaly
81.09826°
Mean motion
3.81732 °/min
Orbital period
94.31 mins
BSTAR
0.0000023125
Loading maneuver chart data...
Computing Atmospheric mass density...
Loading historical data...
Loading historical data...
Loading historical data...
Loading historical data...
Loading historical data...
Loading historical data...
Loading historical data...

Documentation

Showing up to 5 results
|